TimeEST,TemperatureF,Dew PointF,Humidity,Sea Level PressureIn,VisibilityMPH,Wind Direction,Wind SpeedMPH,Gust SpeedMPH,PrecipitationIn,Events,Conditions,WindDirDegrees,DateUTC
12:15 AM,61.7,39.2,43,29.92,10.0,South,13.8,20.7,N/A,,Overcast,190,2012-11-12 05:15:00
12:34 AM,61.5,40.3,46,29.91,10.0,South,10.4,19.6,N/A,Rain,Rain,190,2012-11-12 05:34:00
1:15 AM,59.5,44.2,57,29.90,10.0,SSW,13.8,24.2,N/A,Rain,Light Rain,200,2012-11-12 06:15:00
1:55 AM,59.9,46.0,60,29.90,10.0,SSW,13.8,21.9,N/A,,Overcast,200,2012-11-12 06:55:00
2:15 AM,59.0,49.1,70,29.91,10.0,SSW,18.4,28.8,N/A,,Light Drizzle,200,2012-11-12 07:15:00
2:34 AM,57.7,51.3,79,29.91,10.0,SSW,13.8,29.9,N/A,Rain,Rain,200,2012-11-12 07:34:00
2:55 AM,55.0,51.8,89,29.93,5.0,WSW,11.5,17.3,N/A,Rain,Rain,250,2012-11-12 07:55:00
3:14 AM,52.7,50.5,92,29.92,10.0,WSW,8.1,16.1,N/A,Rain,Rain,250,2012-11-12 08:14:00
3:34 AM,52.0,50.2,94,29.92,7.0,SW,4.6,-,N/A,Rain,Light Rain,220,2012-11-12 08:34:00
4:14 AM,51.8,50.2,94,29.92,7.0,SSW,9.2,-,N/A,Rain,Rain,210,2012-11-12 09:14:00
4:34 AM,51.8,50.0,94,29.91,7.0,SW,9.2,-,N/A,Rain,Rain,220,2012-11-12 09:34:00
4:54 AM,51.3,49.5,94,29.91,7.0,SW,8.1,-,N/A,Rain,Rain,220,2012-11-12 09:54:00
5:14 AM,51.1,49.5,94,29.93,7.0,SW,9.2,-,N/A,Rain,Rain,230,2012-11-12 10:14:00
5:35 AM,50.9,49.3,94,29.91,7.0,SW,8.1,-,N/A,Rain,Rain,220,2012-11-12 10:35:00
5:54 AM,50.9,49.3,94,29.91,10.0,SW,9.2,-,N/A,Rain,Light Rain,230,2012-11-12 10:54:00
6:14 AM,45.9,43.5,92,29.93,7.0,WNW,18.4,23.0,N/A,Rain,Light Rain,290,2012-11-12 11:14:00
6:35 AM,44.8,42.8,93,29.95,10.0,West,12.7,21.9,N/A,Rain,Light Rain,280,2012-11-12 11:35:00
6:54 AM,44.1,42.1,93,29.95,4.0,West,11.5,-,N/A,,Overcast,280,2012-11-12 11:54:00
7:54 AM,42.8,40.8,93,29.96,7.0,West,8.1,-,N/A,Rain,Light Rain,260,2012-11-12 12:54:00
8:15 AM,42.8,40.6,92,29.98,10.0,WSW,10.4,-,N/A,Rain,Rain,250,2012-11-12 13:15:00
8:34 AM,41.9,39.7,92,29.97,7.0,West,16.1,-,N/A,Rain,Light Rain,280,2012-11-12 13:34:00
8:54 AM,40.6,38.3,91,29.98,7.0,West,13.8,18.4,N/A,,Overcast,280,2012-11-12 13:54:00
9:15 AM,40.5,38.1,91,30.00,10.0,West,12.7,19.6,N/A,Rain,Light Rain,280,2012-11-12 14:15:00
9:34 AM,39.7,37.4,91,30.00,3.0,West,19.6,25.3,N/A,Rain,Light Rain,260,2012-11-12 14:34:00
9:54 AM,38.8,36.5,91,30.01,4.0,West,13.8,18.4,N/A,Rain,Light Rain,270,2012-11-12 14:54:00
10:15 AM,38.1,35.8,91,30.03,5.0,West,15.0,20.7,N/A,Rain,Light Rain,270,2012-11-12 15:15:00
10:54 AM,35.1,33.6,94,30.04,2.5,WSW,12.7,16.1,N/A,Snow,Light Snow,250,2012-11-12 15:54:00
11:15 AM,36.3,34.7,94,30.04,7.0,WSW,10.4,-,N/A,,Overcast,250,2012-11-12 16:15:00
11:34 AM,36.7,33.1,87,30.04,10.0,WSW,10.4,21.9,N/A,,Overcast,250,2012-11-12 16:34:00
11:55 AM,36.1,32.5,87,30.04,10.0,West,18.4,-,N/A,,Overcast,260,2012-11-12 16:55:00
12:15 PM,35.6,32.0,87,30.05,10.0,West,16.1,20.7,N/A,,Overcast,260,2012-11-12 17:15:00
12:34 PM,35.1,31.5,87,30.05,10.0,West,15.0,23.0,N/A,,Overcast,260,2012-11-12 17:34:00
12:55 PM,34.7,30.4,84,30.05,10.0,West,19.6,25.3,N/A,,Overcast,260,2012-11-12 17:55:00
1:34 PM,34.3,29.8,84,30.06,10.0,WSW,16.1,23.0,N/A,,Overcast,250,2012-11-12 18:34:00
1:55 PM,34.7,29.5,81,30.06,10.0,WSW,12.7,19.6,N/A,,Overcast,250,2012-11-12 18:55:00
2:14 PM,36.0,28.6,75,30.07,10.0,WSW,19.6,24.2,N/A,,Overcast,250,2012-11-12 19:14:00
2:34 PM,37.0,28.4,71,30.07,10.0,WSW,15.0,20.7,N/A,,Mostly Cloudy,250,2012-11-12 19:34:00
2:55 PM,37.0,27.3,68,30.08,10.0,West,16.1,20.7,N/A,,Mostly Cloudy,260,2012-11-12 19:55:00
3:34 PM,38.7,26.4,61,30.07,10.0,WSW,15.0,24.2,N/A,,Mostly Cloudy,250,2012-11-12 20:34:00
3:55 PM,37.8,25.9,62,30.08,10.0,West,13.8,19.6,N/A,,Scattered Clouds,260,2012-11-12 20:55:00
4:14 PM,37.0,23.7,59,30.09,10.0,West,17.3,21.9,N/A,,Clear,260,2012-11-12 21:14:00
4:35 PM,36.5,23.7,60,30.11,10.0,WSW,13.8,23.0,N/A,,Clear,250,2012-11-12 21:35:00
4:55 PM,35.6,23.4,61,30.11,10.0,WSW,15.0,19.6,N/A,,Mostly Cloudy,250,2012-11-12 21:55:00
5:14 PM,35.1,23.9,64,30.12,10.0,WSW,11.5,18.4,N/A,,Overcast,250,2012-11-12 22:14:00
5:35 PM,35.1,23.4,62,30.13,10.0,West,12.7,-,N/A,,Overcast,270,2012-11-12 22:35:00
5:54 PM,33.1,23.2,67,30.15,10.0,West,11.5,16.1,N/A,,Mostly Cloudy,270,2012-11-12 22:54:00
6:14 PM,32.5,23.7,70,30.16,10.0,West,9.2,-,N/A,,Mostly Cloudy,260,2012-11-12 23:14:00
6:35 PM,33.1,24.1,70,30.17,10.0,West,10.4,-,N/A,,Overcast,260,2012-11-12 23:35:00
6:54 PM,33.6,23.9,68,30.18,10.0,WSW,13.8,19.6,N/A,,Overcast,250,2012-11-12 23:54:00
7:14 PM,33.1,23.2,67,30.18,10.0,WSW,11.5,18.4,N/A,,Overcast,240,2012-11-13 00:14:00
7:54 PM,32.9,23.4,68,30.19,10.0,WSW,13.8,-,N/A,,Overcast,240,2012-11-13 00:54:00
8:14 PM,32.9,23.0,67,30.20,10.0,WSW,12.7,-,N/A,,Overcast,250,2012-11-13 01:14:00
8:34 PM,32.9,22.8,66,30.20,10.0,WSW,12.7,19.6,N/A,,Overcast,250,2012-11-13 01:34:00
8:54 PM,33.1,22.8,66,30.21,10.0,WSW,15.0,21.9,N/A,,Overcast,240,2012-11-13 01:54:00
9:15 PM,33.3,22.8,66,30.21,10.0,WSW,10.4,-,N/A,,Overcast,250,2012-11-13 02:15:00
9:34 PM,33.4,23.0,66,30.22,10.0,WSW,15.0,20.7,N/A,,Overcast,240,2012-11-13 02:34:00
9:54 PM,33.4,23.0,66,30.23,10.0,WSW,10.4,-,N/A,,Overcast,240,2012-11-13 02:54:00
10:15 PM,33.6,23.2,66,30.24,10.0,WSW,16.1,24.2,N/A,,Overcast,240,2012-11-13 03:15:00
10:34 PM,33.4,23.2,66,30.25,10.0,WSW,15.0,19.6,N/A,,Overcast,240,2012-11-13 03:34:00
10:55 PM,33.8,23.4,66,30.25,10.0,WSW,15.0,25.3,N/A,,Overcast,250,2012-11-13 03:55:00
11:15 PM,33.6,23.7,67,30.26,10.0,WSW,13.8,20.7,N/A,,Overcast,250,2012-11-13 04:15:00
11:34 PM,33.1,24.8,72,30.26,10.0,West,12.7,23.0,N/A,,Overcast,260,2012-11-13 04:34:00
11:55 PM,32.9,25.5,74,30.26,7.0,West,15.0,21.9,N/A,Snow,Light Snow,260,2012-11-13 04:55:00